EN

Hourly Weather Basalaevo

Today, 16 January, Saturday

Time Temperature Precipitation Wind Pressure Humidity
00:00 -19°C° 0 mm 4 mps 735 mmHg 97%
01:00 -20°C° 0 mm 5 mps 735 mmHg 96%
02:00 -19°C° 0 mm 5 mps 734 mmHg 96%
03:00 -18°C° 0 mm 6 mps 733 mmHg 97%
04:00 -18°C° 0.9 mm 6 mps 732 mmHg 96%
05:00 -18°C° 0.9 mm 6 mps 731 mmHg 95%
06:00 -17°C° 0.9 mm 6 mps 730 mmHg 94%
07:00 -17°C° 0.9 mm 6 mps 729 mmHg 94%
08:00 -17°C° 0.9 mm 6 mps 729 mmHg 94%
09:00 -17°C° 0 mm 6 mps 728 mmHg 94%
10:00 -15°C° 0.4 mm 5 mps 728 mmHg 94%
11:00 -14°C° 0.4 mm 5 mps 727 mmHg 94%
12:00 -14°C° 0.4 mm 5 mps 727 mmHg 94%
13:00 -12°C° 0.2 mm 4 mps 727 mmHg 94%
14:00 -12°C° 0.2 mm 3 mps 726 mmHg 94%
15:00 -12°C° 0.2 mm 3 mps 726 mmHg 95%
16:00 -12°C° 0.1 mm 2 mps 726 mmHg 95%
17:00 -13°C° 0.1 mm 2 mps 726 mmHg 95%
18:00 -13°C° 0.1 mm 2 mps 726 mmHg 96%
19:00 -14°C° 0.1 mm 2 mps 726 mmHg 96%
20:00 -14°C° 0.1 mm 2 mps 726 mmHg 96%
21:00 -15°C° 0.1 mm 2 mps 727 mmHg 96%
22:00 -15°C° 0.1 mm 2 mps 727 mmHg 96%
23:00 -15°C° 0.1 mm 2 mps 727 mmHg 96%

Tomorrow, 17 January, Sunday

Time Temperature Precipitation Wind Pressure Humidity
00:00 -17°C° 0.1 mm 3 mps 727 mmHg 95%
01:00 -17°C° 0.1 mm 3 mps 727 mmHg 95%
02:00 -17°C° 0.1 mm 3 mps 728 mmHg 95%
03:00 -18°C° 0.1 mm 3 mps 728 mmHg 95%
04:00 -19°C° 0.1 mm 4 mps 728 mmHg 95%
05:00 -19°C° 0.1 mm 4 mps 729 mmHg 95%
06:00 -19°C° 0.1 mm 4 mps 729 mmHg 94%
07:00 -20°C° 0 mm 4 mps 730 mmHg 95%
08:00 -20°C° 0 mm 4 mps 731 mmHg 95%
09:00 -21°C° 0 mm 3 mps 731 mmHg 95%
10:00 -21°C° 0 mm 3 mps 732 mmHg 95%
11:00 -21°C° 0 mm 3 mps 733 mmHg 94%
12:00 -21°C° 0 mm 3 mps 734 mmHg 94%
13:00 -23°C° 0 mm 3 mps 735 mmHg 95%
14:00 -24°C° 0 mm 3 mps 735 mmHg 96%
15:00 -24°C° 0 mm 2 mps 736 mmHg 97%
16:00 -25°C° 0 mm 2 mps 737 mmHg 98%
17:00 -26°C° 0 mm 2 mps 737 mmHg 98%
18:00 -28°C° 0 mm 2 mps 738 mmHg 98%
19:00 -28°C° 0 mm 2 mps 738 mmHg 98%
20:00 -27°C° 0 mm 1 mps 739 mmHg 98%
21:00 -27°C° 0 mm 1 mps 739 mmHg 98%
22:00 -28°C° 0 mm 1 mps 740 mmHg 98%
23:00 -28°C° 0 mm 1 mps 740 mmHg 98%

Day after tomorrow, 18 January, Monday

Time Temperature Precipitation Wind Pressure Humidity
00:00 -28°C° 0 mm 1 mps 740 mmHg 98%
01:00 -28°C° 0 mm 1 mps 741 mmHg 98%
02:00 -28°C° 0 mm 1 mps 741 mmHg 98%
03:00 -28°C° 0 mm 1 mps 741 mmHg 98%
04:00 -29°C° 0 mm 1 mps 741 mmHg 98%
05:00 -29°C° 0 mm 1 mps 741 mmHg 98%
06:00 -29°C° 0 mm 1 mps 741 mmHg 98%
07:00 -30°C° 0 mm 2 mps 741 mmHg 98%
08:00 -30°C° 0 mm 2 mps 742 mmHg 97%
09:00 -29°C° 0 mm 2 mps 742 mmHg 97%
10:00 -28°C° 0 mm 2 mps 742 mmHg 96%
11:00 -27°C° 0 mm 2 mps 742 mmHg 96%
12:00 -23°C° 0 mm 1 mps 742 mmHg 95%
13:00 -23°C° 0 mm 1 mps 742 mmHg 96%
14:00 -24°C° 0 mm 1 mps 742 mmHg 96%
15:00 -24°C° 0 mm 1 mps 742 mmHg 97%
16:00 -25°C° 0 mm 1 mps 742 mmHg 97%
17:00 -25°C° 0 mm 1 mps 742 mmHg 97%
18:00 -27°C° 0 mm 1 mps 742 mmHg 97%
19:00 -27°C° 0 mm 1 mps 742 mmHg 97%
20:00 -25°C° 0 mm 0 mps 742 mmHg 96%
21:00 -25°C° 0 mm 0 mps 742 mmHg 96%
22:00 -25°C° 0 mm 1 mps 742 mmHg 96%
23:00 -25°C° 0 mm 1 mps 741 mmHg 95%

19 January, Tuesday

Time Temperature Precipitation Wind Pressure Humidity
00:00 -24°C° 0 mm 1 mps 741 mmHg 95%
01:00 -24°C° 0 mm 1 mps 741 mmHg 95%
02:00 -24°C° 0 mm 1 mps 741 mmHg 95%
03:00 -24°C° 0 mm 1 mps 741 mmHg 95%
04:00 -24°C° 0 mm 1 mps 741 mmHg 95%
05:00 -26°C° 0 mm 2 mps 741 mmHg 95%
06:00 -26°C° 0 mm 2 mps 740 mmHg 95%
07:00 -26°C° 0 mm 2 mps 740 mmHg 95%
08:00 -26°C° 0 mm 2 mps 740 mmHg 95%
09:00 -25°C° 0 mm 2 mps 740 mmHg 95%
10:00 -25°C° 0 mm 2 mps 740 mmHg 94%
11:00 -25°C° 0 mm 3 mps 740 mmHg 94%
12:00 -24°C° 0 mm 3 mps 740 mmHg 93%
13:00 -24°C° 0 mm 3 mps 739 mmHg 93%
14:00 -24°C° 0 mm 3 mps 739 mmHg 94%
15:00 -24°C° 0 mm 3 mps 739 mmHg 94%
16:00 -24°C° 0 mm 3 mps 738 mmHg 95%
17:00 -24°C° 0 mm 3 mps 738 mmHg 95%
18:00 -24°C° 0 mm 3 mps 738 mmHg 96%
19:00 -24°C° 0 mm 3 mps 738 mmHg 95%
20:00 -24°C° 0 mm 3 mps 738 mmHg 95%
21:00 -24°C° 0 mm 3 mps 738 mmHg 94%
22:00 -25°C° 0 mm 3 mps 737 mmHg 94%
23:00 -25°C° 0 mm 3 mps 737 mmHg 94%

20 January, Wednesday

Time Temperature Precipitation Wind Pressure Humidity
00:00 -25°C° 0 mm 3 mps 737 mmHg 93%
01:00 -25°C° 0 mm 3 mps 737 mmHg 94%
02:00 -26°C° 0 mm 3 mps 737 mmHg 94%
03:00 -25°C° 0 mm 2 mps 737 mmHg 95%
04:00 -26°C° 0 mm 2 mps 737 mmHg 96%
05:00 -26°C° 0 mm 2 mps 737 mmHg 96%
06:00 -27°C° 0 mm 2 mps 738 mmHg 97%
07:00 -27°C° 0 mm 2 mps 738 mmHg 97%
08:00 -27°C° 0 mm 2 mps 738 mmHg 97%
09:00 -28°C° 0 mm 2 mps 739 mmHg 98%
10:00 -27°C° 0 mm 2 mps 739 mmHg 97%
11:00 -25°C° 0 mm 2 mps 739 mmHg 97%
12:00 -24°C° 0 mm 2 mps 740 mmHg 96%
13:00 -25°C° 0 mm 2 mps 740 mmHg 96%
14:00 -25°C° 0 mm 2 mps 740 mmHg 96%
15:00 -26°C° 0 mm 2 mps 740 mmHg 96%
16:00 -27°C° 0 mm 2 mps 741 mmHg 97%
17:00 -27°C° 0 mm 2 mps 741 mmHg 97%
18:00 -25°C° 0 mm 1 mps 742 mmHg 97%
19:00 -29°C° 0 mm 2 mps 742 mmHg 97%
20:00 -29°C° 0 mm 2 mps 742 mmHg 98%
21:00 -29°C° 0 mm 2 mps 742 mmHg 98%
22:00 -29°C° 0 mm 2 mps 742 mmHg 97%
23:00 -29°C° 0 mm 2 mps 742 mmHg 97%

21 January, Thursday

Time Temperature Precipitation Wind Pressure Humidity
00:00 -29°C° 0 mm 2 mps 742 mmHg 96%
01:00 -30°C° 0 mm 3 mps 743 mmHg 96%
02:00 -30°C° 0 mm 3 mps 743 mmHg 95%
03:00 -29°C° 0 mm 3 mps 743 mmHg 94%
04:00 -27°C° 0 mm 3 mps 742 mmHg 96%
05:00 -26°C° 0 mm 3 mps 742 mmHg 97%
06:00 -26°C° 0 mm 4 mps 742 mmHg 98%
07:00 -25°C° 0.1 mm 4 mps 742 mmHg 97%
08:00 -25°C° 0.1 mm 4 mps 742 mmHg 97%
09:00 -24°C° 0.1 mm 4 mps 741 mmHg 96%
10:00 -23°C° 0.1 mm 4 mps 741 mmHg 96%
11:00 -20°C° 0.1 mm 4 mps 741 mmHg 95%
12:00 -20°C° 0.1 mm 5 mps 740 mmHg 94%
13:00 -20°C° 0.1 mm 5 mps 740 mmHg 94%
14:00 -19°C° 0.1 mm 5 mps 739 mmHg 94%
15:00 -19°C° 0.1 mm 5 mps 738 mmHg 94%
16:00 -19°C° 0.7 mm 5 mps 738 mmHg 94%
17:00 -18°C° 0.7 mm 5 mps 737 mmHg 94%
18:00 -18°C° 0.7 mm 5 mps 737 mmHg 94%
19:00 -17°C° 0.5 mm 4 mps 737 mmHg 95%
20:00 -16°C° 0.5 mm 3 mps 737 mmHg 95%
21:00 -15°C° 0.5 mm 2 mps 736 mmHg 96%
22:00 -16°C° 0 mm 2 mps 736 mmHg 96%
23:00 -17°C° 0 mm 2 mps 736 mmHg 97%
Show more

We Need Your Consent

Meteoprog and our Service Providers may store and access personal data such as cookies, device identifiers or other similar technologies on your device and process such data to personalise content and ads, as well as provide social media features and to analyse the traffic.

  • Store and/or access information on your device

    Cookies, device identifiers or other information can be stored or accessed on your device for the purposes indicated above.

  • Personalised ads and content, ad and content measurement, audience insights, and products development

    Ads and content can be personalised based on a profile. More data can be added to better personalise ads and content. Ad and content performance can be measured. Insights about the audience who saw the ads and content can be derived. Such data can be used to develop or improve user’s experience, systems and software.

By clicking ‘I Agree’ you will allow the use of indicated cookies, device identifiers, web beacons or other similar technologies. Your settings can be changed in the browser on your device.

For certain purposes, legitimate interests may be relied on, rather than consent. You can read more about this in our Privacy and Cookie Policy.